GW7096 Weather Reports


time (UTC)temp
C
wind
direction
speed
KPH
gust
KPH
rain 1hr
cm
rain 24hr
cm
rain mn
cm
humidity
%
barometer
mb
20260507063827 13 315 0.0 0.0 0.00 0.00 0.00 99 1018.0
20260507063324 13 315 0.0 0.0 0.00 0.00 0.00 99 1018.1
20260507062820 13 315 0.0 0.0 0.00 0.00 0.00 99 1017.9
20260507062318 13 315 0.0 0.0 0.00 0.00 0.00 99 1017.8
20260507061816 13 315 0.0 0.0 0.00 0.00 0.00 99 1017.8
20260507061313 13 315 0.0 0.0 0.00 0.00 0.00 99 1017.8
20260507060812 13 315 0.0 0.0 0.00 0.00 0.00 99 1017.8
20260507060308 13 315 0.0 0.0 0.00 0.00 0.00 99 1018.0
20260507055804 13 315 0.0 0.0 0.00 0.00 0.00 99 1017.9
20260507055259 13 315 0.0 0.0 0.00 0.00 0.00 99 1017.9
20260507054756 13 315 0.0 0.0 0.00 0.00 0.00 99 1017.9
20260507054253 13 315 0.0 0.0 0.00 0.00 0.00 98 1017.8
20260507053750 13 315 0.0 0.0 0.00 0.00 0.00 98 1017.7
20260507053247 13 315 0.0 0.0 0.00 0.00 0.00 98 1018.0
20260507052746 13 315 0.0 0.0 0.00 0.00 0.00 99 1017.9
20260507052243 13 315 0.0 0.0 0.00 0.00 0.00 98 1017.7
20260507051741 13 315 0.0 0.0 0.00 0.00 0.00 98 1017.8
20260507051237 13 315 0.0 0.0 0.00 0.00 0.00 97 1017.8
20260507050734 13 315 0.0 0.0 0.00 0.00 0.00 97 1017.9
20260507050231 14 315 0.0 0.0 0.00 0.00 0.00 95 1017.9
20260507045727 14 315 0.0 0.0 0.00 0.00 0.00 95 1017.7
20260507045224 15 315 0.0 0.0 0.00 0.00 0.00 95 1017.8
20260507044721 15 315 0.0 0.0 0.00 0.00 0.00 92 1018.0
20260507044217 15 315 0.0 0.0 0.00 0.00 0.00 91 1017.9
20260507043714 15 315 0.0 0.0 0.00 0.00 0.00 91 1017.7
20260507043211 15 315 0.0 0.0 0.00 0.00 0.00 91 1017.6
20260507042707 15 315 0.0 0.0 0.00 0.00 0.00 91 1017.8
20260507042202 15 314 0.0 0.0 0.00 0.00 0.00 91 1017.7
20260507041700 15 314 0.0 1.6 0.00 0.00 0.00 90 1017.6
20260507041156 16 356 0.0 0.0 0.00 0.00 0.00 89 1017.5
20260507040653 16 15 0.0 0.0 0.00 0.00 0.00 88 1017.6
20260507040149 16 14 0.0 0.0 0.00 0.00 0.00 87 1017.5
20260507035645 16 15 0.0 0.0 0.00 0.00 0.00 86 1017.6
20260507035141 16 11 0.0 0.0 0.00 0.00 0.00 86 1017.4
20260507034638 16 15 0.0 1.6 0.00 0.00 0.00 85 1017.4
20260507034136 16 293 0.0 0.0 0.00 0.00 0.00 84 1017.3
20260507033634 16 306 1.6 1.6 0.00 0.00 0.00 83 1017.2
20260507033131 16 276 3.2 3.2 0.00 0.00 0.00 82 1017.3
20260507032629 16 310 0.0 0.0 0.00 0.00 0.00 80 1017.3
20260507032124 17 310 0.0 0.0 0.00 0.00 0.00 79 1017.2
20260507031621 17 306 0.0 1.6 0.00 0.00 0.00 79 1017.1
20260507031118 17 318 1.6 1.6 0.00 0.00 0.00 77 1017.1
20260507030615 17 355 0.0 0.0 0.00 0.00 0.00 76 1017.0
20260507030113 17 311 0.0 3.2 0.00 0.00 0.00 76 1017.0
20260507025609 17 270 1.6 1.6 0.00 0.00 0.00 75 1016.9
20260507025106 17 321 0.0 1.6 0.00 0.00 0.00 73 1017.1
20260507024604 17 322 0.0 1.6 0.00 0.00 0.00 70 1016.9
20260507024101 17 308 1.6 1.6 0.00 0.00 0.00 70 1016.6
20260507023556 18 275 1.6 3.2 0.00 0.00 0.00 70 1016.7
20260507023054 18 302 0.0 1.6 0.00 0.00 0.00 72 1016.6
20260507022551 18 297 1.6 1.6 0.00 0.00 0.00 71 1016.7
20260507022046 18 335 0.0 3.2 0.00 0.00 0.00 70 1016.8
20260507021543 18 268 0.0 3.2 0.00 0.00 0.00 69 1016.4
20260507021039 18 290 0.0 3.2 0.00 0.00 0.00 69 1016.7
20260507020537 19 298 1.6 3.2 0.00 0.00 0.00 69 1016.7
20260507020033 19 265 0.0 3.2 0.00 0.00 0.00 69 1016.6
20260507015532 20 342 0.0 1.6 0.00 0.00 0.00 68 1016.5
20260507015029 20 328 1.6 1.6 0.00 0.00 0.00 67 1016.7
20260507014525 20 14 1.6 4.8 0.00 0.00 0.00 67 1016.3
20260507014021 20 324 4.8 4.8 0.00 0.00 0.00 65 1016.4
20260507013518 21 200 0.0 4.8 0.00 0.00 0.00 63 1016.4
20260507013015 22 308 1.6 3.2 0.00 0.00 0.00 61 1016.3
20260507012512 22 247 0.0 3.2 0.00 0.00 0.00 60 1016.5
20260507012008 23 282 1.6 4.8 0.00 0.00 0.00 59 1016.3
20260507011506 22 294 0.0 1.6 0.00 0.00 0.00 60 1016.5
20260507011001 22 329 3.2 4.8 0.00 0.00 0.00 60 1016.4
20260507010456 22 293 1.6 4.8 0.00 0.00 0.00 59 1016.5
20260507005953 23 266 1.6 9.7 0.00 0.00 0.00 58 1016.5
20260507005451 23 295 1.6 3.2 0.00 0.00 0.00 58 1016.4
20260507004947 23 293 1.6 1.6 0.00 0.00 0.00 59 1016.2
20260507004443 23 272 3.2 3.2 0.00 0.00 0.00 58 1016.3
20260507003941 22 254 1.6 3.2 0.00 0.00 0.00 59 1016.3
20260507003436 23 190 1.6 4.8 0.00 0.00 0.00 57 1016.2
20260507002931 23 322 3.2 6.4 0.00 0.00 0.00 57 1016.2
20260507002428 23 290 1.6 3.2 0.00 0.00 0.00 59 1016.3
20260507001925 23 285 4.8 6.4 0.00 0.00 0.00 57 1016.3
20260507001422 23 265 3.2 3.2 0.00 0.00 0.00 57 1016.1
20260507000920 23 167 1.6 6.4 0.00 0.00 0.00 57 1016.2
20260507000415 23 85 1.6 3.2 0.00 0.00 0.00 59 1016.2
20260506235910 24 288 0.0 3.2 0.00 0.00 0.00 55 1016.1
20260506235408 24 309 0.0 4.8 0.00 0.00 0.00 56 1016.1
20260506234903 23 240 1.6 3.2 0.00 0.00 0.00 57 1016.1
20260506234402 23 242 1.6 4.8 0.00 0.00 0.00 56 1016.0
20260506233859 23 199 1.6 4.8 0.00 0.00 0.00 56 1016.1
20260506233355 23 230 6.4 4.8 0.00 0.00 0.00 57 1016.1
20260506232852 24 170 3.2 4.8 0.00 0.00 0.00 57 1015.9
20260506232348 25 284 3.2 11.3 0.00 0.00 0.00 55 1016.1
20260506231844 25 322 4.8 4.8 0.00 0.00 0.00 55 1016.1
20260506231342 25 224 1.6 3.2 0.00 0.00 0.00 55 1016.1
20260506230839 25 277 4.8 6.4 0.00 0.00 0.00 56 1016.0
20260506230336 25 349 3.2 3.2 0.00 0.00 0.00 55 1016.1
20260506225832 25 299 1.6 4.8 0.00 0.00 0.00 57 1015.9
20260506225330 25 265 3.2 6.4 0.00 0.00 0.00 55 1016.2
20260506224826 25 299 0.0 4.8 0.00 0.00 0.00 55 1016.4
20260506224323 25 193 1.6 3.2 0.00 0.00 0.00 56 1016.0
20260506223820 25 256 3.2 4.8 0.00 0.00 0.00 57 1016.2
20260506223315 25 280 1.6 9.7 0.00 0.00 0.00 57 1016.1
20260506222813 25 304 1.6 4.8 0.00 0.00 0.00 57 1016.2
20260506222308 25 206 1.6 1.6 0.00 0.00 0.00 56 1016.2
20260506221807 25 318 4.8 4.8 0.00 0.00 0.00 56 1016.4
20260506221304 25 292 1.6 1.6 0.00 0.00 0.00 57 1016.5
20260506220802 25 318 1.6 3.2 0.00 0.00 0.00 56 1016.4
20260506220301 25 311 3.2 3.2 0.00 0.00 0.00 55 1016.5
20260506215758 25 282 1.6 4.8 0.00 0.00 0.00 56 1016.6
20260506215254 25 244 3.2 4.8 0.00 0.00 0.00 58 1016.7
20260506214750 25 241 3.2 6.4 0.00 0.00 0.00 56 1016.6
20260506214247 25 348 4.8 6.4 0.00 0.00 0.00 56 1016.5
20260506213746 25 215 3.2 3.2 0.00 0.00 0.00 57 1016.8
20260506213242 25 140 3.2 4.8 0.00 0.00 0.00 56 1016.9
20260506212740 25 178 3.2 3.2 0.00 0.00 0.00 55 1016.7
20260506212236 24 316 1.6 3.2 0.00 0.00 0.00 59 1016.9
20260506211731 25 23 3.2 6.4 0.00 0.00 0.00 58 1016.8
20260506211227 25 228 8.0 11.3 0.00 0.00 0.00 56 1016.9
20260506210725 25 180 3.2 9.7 0.00 0.00 0.00 57 1016.7
20260506210221 25 226 6.4 6.4 0.00 0.00 0.00 55 1016.8
20260506205719 25 264 3.2 4.8 0.00 0.00 0.00 56 1016.9
20260506205214 25 326 3.2 4.8 0.00 0.00 0.00 56 1017.0
20260506204711 25 286 1.6 4.8 0.00 0.00 0.00 56 1016.8
20260506204208 25 269 3.2 6.4 0.00 0.00 0.00 56 1016.8
20260506203706 25 284 3.2 9.7 0.00 0.00 0.00 57 1016.9
20260506203203 25 305 4.8 6.4 0.00 0.00 0.00 56 1016.9
20260506202701 25 299 1.6 6.4 0.00 0.00 0.00 56 1016.9
20260506202156 25 254 3.2 4.8 0.00 0.00 0.00 55 1017.0
20260506201654 26 262 4.8 6.4 0.00 0.00 0.00 53 1016.9
20260506201150 26 216 3.2 6.4 0.00 0.00 0.00 53 1017.1
20260506200647 25 219 4.8 6.4 0.00 0.00 0.00 54 1016.9
20260506200144 26 310 3.2 4.8 0.00 0.00 0.00 55 1017.1
20260506195640 26 328 1.6 11.3 0.00 0.00 0.00 53 1016.9
20260506195137 26 241 3.2 3.2 0.00 0.00 0.00 52 1017.2
20260506194634 26 283 1.6 3.2 0.00 0.00 0.00 52 1017.2
20260506194130 26 262 3.2 4.8 0.00 0.00 0.00 52 1017.2
20260506193628 26 320 1.6 4.8 0.00 0.00 0.00 51 1017.1
20260506193125 27 287 1.6 3.2 0.00 0.00 0.00 51 1017.2
20260506192622 27 283 1.6 1.6 0.00 0.00 0.00 48 1017.3
20260506192118 26 263 4.8 4.8 0.00 0.00 0.00 49 1017.4
20260506191615 27 296 1.6 1.6 0.00 0.00 0.00 51 1017.5
20260506191111 26 7 1.6 1.6 0.00 0.00 0.00 52 1017.6
20260506190609 26 154 3.2 4.8 0.00 0.00 0.00 49 1017.5
20260506190105 26 235 1.6 3.2 0.00 0.00 0.00 51 1017.4
20260506185602 26 302 3.2 6.4 0.00 0.00 0.00 48 1017.6
20260506185058 26 281 1.6 3.2 0.00 0.00 0.00 49 1017.6
20260506184556 26 78 1.6 3.2 0.00 0.00 0.00 48 1017.6
20260506184053 26 258 0.0 1.6 0.00 0.00 0.00 52 1017.6
20260506183549 25 298 3.2 4.8 0.00 0.00 0.00 50 1017.8
20260506183046 25 236 1.6 1.6 0.00 0.00 0.00 53 1018.0
20260506182543 25 218 1.6 3.2 0.00 0.00 0.00 51 1018.0
20260506182040 25 358 1.6 3.2 0.00 0.00 0.00 52 1018.2
20260506181538 25 9 1.6 4.8 0.00 0.00 0.00 52 1018.0
20260506181035 25 302 0.0 3.2 0.00 0.00 0.00 50 1018.1
20260506180531 23 296 1.6 9.7 0.00 0.00 0.00 54 1018.2
20260506180028 24 45 0.0 1.6 0.00 0.00 0.00 52 1018.2
20260506175525 25 299 1.6 1.6 0.00 0.00 0.00 52 1018.2
20260506175021 25 296 3.2 4.8 0.00 0.00 0.00 52 1018.2
20260506174520 24 272 0.0 1.6 0.00 0.00 0.00 54 1018.1
20260506174015 23 16 0.0 3.2 0.00 0.00 0.00 54 1018.3
20260506173513 23 226 0.0 4.8 0.00 0.00 0.00 53 1018.3
20260506173010 23 185 1.6 3.2 0.00 0.00 0.00 55 1018.3
20260506172508 22 17 1.6 1.6 0.00 0.00 0.00 56 1018.5
20260506172003 23 77 1.6 4.8 0.00 0.00 0.00 54 1018.6
20260506171501 23 211 1.6 1.6 0.00 0.00 0.00 57 1018.7
20260506170959 22 260 1.6 4.8 0.00 0.00 0.00 58 1018.4
20260506170455 22 56 3.2 4.8 0.00 0.00 0.00 59 1018.5
20260506165953 22 35 0.0 1.6 0.00 0.00 0.00 56 1018.5
20260506165452 22 30 1.6 1.6 0.00 0.00 0.00 58 1018.5
20260506164947 22 6 0.0 1.6 0.00 0.00 0.00 57 1018.4
20260506164444 22 223 0.0 1.6 0.00 0.00 0.00 61 1018.6
20260506163942 21 258 1.6 3.2 0.00 0.00 0.00 61 1018.5
20260506163437 21 16 0.0 1.6 0.00 0.00 0.00 62 1018.5
20260506162932 21 5 0.0 1.6 0.00 0.00 0.00 60 1018.7
20260506162430 21 25 1.6 3.2 0.00 0.00 0.00 61 1018.6
20260506161927 21 45 0.0 1.6 0.00 0.00 0.00 60 1018.6
20260506161425 21 200 0.0 1.6 0.00 0.00 0.00 64 1018.5
20260506160922 20 307 1.6 1.6 0.00 0.00 0.00 65 1018.5
20260506160420 20 43 1.6 1.6 0.00 0.00 0.00 63 1018.6
20260506155917 20 311 3.2 3.2 0.00 0.00 0.00 64 1018.7
20260506155414 20 46 1.6 1.6 0.00 0.00 0.00 64 1018.7
20260506153531 20 57 1.6 1.6 0.00 0.00 0.00 62 1018.7
20260506153028 20 74 0.0 1.6 0.00 0.00 0.00 63 1018.7
20260506152525 21 32 0.0 1.6 0.00 0.00 0.00 63 1018.7
20260506152023 20 32 0.0 1.6 0.00 0.00 0.00 65 1018.6
20260506151520 19 31 0.0 0.0 0.00 0.00 0.00 68 1018.8
20260506151018 18 32 0.0 1.6 0.00 0.00 0.00 71 1018.9
20260506150513 18 46 0.0 1.6 0.00 0.00 0.00 70 1018.6
20260506150011 17 36 0.0 1.6 0.00 0.00 0.00 72 1018.8
20260506145507 16 26 0.0 1.6 0.00 0.00 0.00 77 1018.9
20260506145005 15 26 0.0 3.2 0.00 0.00 0.00 79 1018.9
20260506144502 15 38 0.0 1.6 0.00 0.00 0.00 83 1018.8
20260506143959 14 39 0.0 1.6 0.00 0.00 0.00 85 1018.7
20260506143456 13 40 0.0 0.0 0.00 0.00 0.00 87 1018.7
20260506142955 13 35 1.6 1.6 0.00 0.00 0.00 88 1018.6
20260506142452 13 44 3.2 3.2 0.00 0.00 0.00 88 1018.8
20260506141950 12 30 1.6 1.6 0.00 0.00 0.00 90 1018.8
20260506141448 12 33 1.6 3.2 0.00 0.00 0.00 91 1018.8
20260506140946 12 38 0.0 1.6 0.00 0.00 0.00 92 1018.7
20260506140443 12 61 0.0 1.6 0.00 0.00 0.00 92 1018.8
20260506135939 12 320 0.0 0.0 0.00 0.00 0.00 92 1018.7
20260506135437 12 320 1.6 1.6 0.00 0.00 0.00 94 1018.7
20260506134932 11 319 1.6 1.6 0.00 0.00 0.00 95 1018.8
20260506134429 11 314 0.0 0.0 0.00 0.00 0.00 97 1018.6
20260506133926 11 314 0.0 0.0 0.00 0.00 0.00 99 1018.5
20260506133423 10 314 0.0 0.0 0.00 0.00 0.00 99 1018.5
20260506132920 10 314 0.0 0.0 0.00 0.00 0.00 99 1018.5
20260506132417 10 314 0.0 0.0 0.00 0.00 0.00 99 1018.2
20260506131914 10 314 0.0 0.0 0.00 0.00 0.00 98 1018.2
20260506131410 11 314 0.0 0.0 0.00 0.00 0.00 98 1018.2
20260506130908 11 314 0.0 0.0 0.00 0.00 0.00 98 1018.3
20260506130404 11 314 0.0 0.0 0.00 0.00 0.00 99 1018.2
20260506125902 10 314 0.0 0.0 0.00 0.00 0.00 99 1018.1
20260506125400 10 314 0.0 0.0 0.00 0.00 0.00 99 1018.1
20260506124858 10 314 0.0 0.0 0.00 0.00 0.00 99 1018.1
20260506124355 10 314 0.0 0.0 0.00 0.00 0.00 99 1018.1
20260506123853 10 314 0.0 0.0 0.00 0.00 0.00 99 1017.9
20260506123351 10 314 0.0 0.0 0.00 0.00 0.00 99 1018.0
20260506122848 10 314 0.0 0.0 0.00 0.00 0.00 99 1018.0
20260506122344 10 314 0.0 0.0 0.00 0.00 0.00 99 1017.9
20260506121843 10 314 0.0 0.0 0.00 0.00 0.00 98 1018.0
20260506121340 10 314 0.0 0.0 0.00 0.00 0.00 99 1017.8
20260506120837 10 314 0.0 0.0 0.00 0.00 0.00 99 1017.9
20260506120334 10 314 0.0 0.0 0.00 0.00 0.00 99 1017.7
20260506115831 10 313 0.0 0.0 0.00 0.00 0.00 99 1017.6
20260506115330 10 313 0.0 0.0 0.00 0.00 0.00 99 1017.7
20260506114827 10 313 0.0 0.0 0.00 0.00 0.00 99 1017.7
20260506114325 10 313 0.0 0.0 0.00 0.00 0.00 99 1017.7
20260506113823 10 313 0.0 0.0 0.00 0.00 0.00 99 1017.6
20260506113320 10 313 0.0 0.0 0.00 0.00 0.00 98 1017.7
20260506112817 11 313 0.0 0.0 0.00 0.00 0.00 98 1017.9
20260506112314 11 313 0.0 0.0 0.00 0.00 0.00 97 1018.1
20260506111812 11 313 0.0 0.0 0.00 0.00 0.00 96 1017.9
20260506111309 11 313 0.0 0.0 0.00 0.00 0.00 95 1017.8
20260506110807 11 313 0.0 0.0 0.00 0.00 0.00 95 1017.9
20260506110304 11 313 0.0 0.0 0.00 0.00 0.00 95 1017.6
20260506105800 11 313 0.0 0.0 0.00 0.00 0.00 95 1017.8
20260506105257 11 313 0.0 0.0 0.00 0.00 0.00 95 1017.7
20260506104755 11 313 0.0 0.0 0.00 0.00 0.00 95 1017.8
20260506104252 11 313 0.0 0.0 0.00 0.00 0.00 96 1017.9
20260506103749 11 313 0.0 0.0 0.00 0.00 0.00 96 1017.9
20260506103247 11 313 0.0 0.0 0.00 0.00 0.00 96 1017.9
20260506102744 11 313 0.0 0.0 0.00 0.00 0.00 97 1017.6
20260506102242 11 306 0.0 0.0 0.00 0.00 0.00 97 1017.7
20260506101739 11 306 0.0 0.0 0.00 0.00 0.00 98 1017.8
20260506101235 11 305 0.0 0.0 0.00 0.00 0.00 99 1017.5
20260506100733 11 305 0.0 0.0 0.00 0.00 0.00 99 1017.3
20260506100231 10 305 0.0 0.0 0.00 0.00 0.00 99 1017.5
20260506095730 10 298 0.0 0.0 0.00 0.00 0.00 99 1017.5
20260506095226 10 298 0.0 0.0 0.00 0.00 0.00 99 1017.5
20260506094723 10 298 0.0 0.0 0.00 0.00 0.00 99 1017.4
20260506094221 10 298 0.0 0.0 0.00 0.00 0.00 99 1017.5
20260506093720 10 298 0.0 0.0 0.00 0.00 0.00 99 1017.6
20260506093216 10 298 0.0 0.0 0.00 0.00 0.00 99 1017.4
20260506092714 10 298 0.0 0.0 0.00 0.00 0.00 99 1017.5
20260506092211 10 298 0.0 0.0 0.00 0.00 0.00 99 1017.4
20260506091709 10 298 0.0 0.0 0.00 0.00 0.00 99 1017.5
20260506091206 10 298 0.0 0.0 0.00 0.00 0.00 99 1017.7
20260506090704 10 298 0.0 0.0 0.00 0.00 0.00 99 1017.7
20260506090200 10 298 0.0 0.0 0.00 0.00 0.00 99 1017.6
20260506085657 10 298 0.0 0.0 0.00 0.00 0.00 99 1017.6
20260506085153 10 298 0.0 0.0 0.00 0.00 0.00 99 1017.9
20260506084650 10 298 0.0 0.0 0.00 0.00 0.00 99 1018.0
20260506084147 10 298 0.0 0.0 0.00 0.00 0.00 99 1018.1
20260506083644 10 298 0.0 0.0 0.00 0.00 0.00 99 1018.0
20260506083142 10 298 0.0 0.0 0.00 0.00 0.00 99 1018.0
20260506082638 10 298 0.0 0.0 0.00 0.00 0.00 99 1018.3
20260506082133 10 298 0.0 0.0 0.00 0.00 0.00 99 1018.2
20260506081632 10 298 0.0 0.0 0.00 0.00 0.00 99 1018.1
20260506081129 10 298 0.0 0.0 0.00 0.00 0.00 99 1018.2
20260506080627 10 297 0.0 0.0 0.00 0.00 0.00 99 1018.3
20260506080123 10 297 0.0 0.0 0.00 0.00 0.00 99 1018.3
20260506073107 11 295 0.0 0.0 0.00 0.00 0.00 98 1018.4
20260506072604 11 295 0.0 0.0 0.00 0.00 0.00 97 1018.5
20260506072102 11 295 0.0 0.0 0.00 0.00 0.00 97 1018.5
20260506071559 11 295 0.0 0.0 0.00 0.00 0.00 97 1018.3
20260506071057 11 295 0.0 0.0 0.00 0.00 0.00 96 1018.3
20260506070554 11 295 0.0 0.0 0.00 0.00 0.00 96 1018.3